Weather History for KCCR - December, 2013

Change the Weather History Date:

Saturday, December 21, 2013

  Actual Average Record
Temperature  
Mean Temperature 48 °F 47 °F  
Max Temperature 61 °F 55 °F 69 °F (1999)
Min Temperature 35 °F 40 °F 29 °F (2011)
Degree Days  
Heating Degree Days 17    
Month to date heating degree days 431  
Since 1 July heating degree days 859  
Cooling Degree Days 0    
Month to date cooling degree days 0  
Year to date cooling degree days 826  
Moisture  
Dew Point 31 °F    
Average Humidity 59    
Maximum Humidity 85    
Minimum Humidity 33    
Precipitation  
Precipitation 0.00 in - 0.46 in (2006)
Month to date precipitation 0.46  
Year to date precipitation 4.54  
Since 1 July precipitation 2.48  
Sea Level Pressure  
Sea Level Pressure 29.99 in    
Wind  
Wind Speed 2 mph (ESE)    
Max Wind Speed 8 mph    
Max Gust Speed 24 mph    
Visibility 9 miles    
Events      
T = Trace of Precipitation, MM = Missing Value Source: NWS Daily Summary

Daily Weather History Graph

Daily Weather History Graph

Search for Another Location

Airport or City:

Trip Planner

Search our weather history database for the weather conditions in past years. The results will help you decide how hot, cold, wet, or windy it might be!

Date:

Astronomy

Dec. 21, 2013 Rise Set
Actual Time 7:20 AM PST 4:52 PM PST
Civil Twilight 6:51 AM PST 5:21 PM PST
Nautical Twilight 6:18 AM PST 5:55 PM PST
Astronomical Twilight 5:46 AM PST 6:27 PM PST
Moon 9:10 PM PST (12/21) 9:53 AM PST (12/21)
Length of Visible Light 10h 30m
Length of Day
9h 31m
Waning Gibbous, 83% of the Moon is Illuminated
Dec 21
Waning Gibbous
Dec 25
Last Quarter
Jan 1
New
Jan 7
First Quarter
Jan 15
Full

Hourly Weather History & Observations

Time (PST) Temp. Windchill Dew Point Humidity Pressure Visibility Wind Dir Wind Speed Gust Speed Precip Events Conditions
12:53 AM 42.1 °F 40.2 °F 23.0 °F 47% 29.94 in 10.0 mi ESE 3.5 mph - N/A   Clear
1:53 AM 41.0 °F - 23.0 °F 49% 29.94 in 10.0 mi Calm Calm - N/A   Clear
2:53 AM 37.9 °F - 25.0 °F 60% 29.95 in 10.0 mi Calm Calm - N/A   Clear
3:53 AM 39.0 °F - 26.1 °F 60% 29.95 in 10.0 mi Calm Calm - N/A   Clear
4:53 AM 37.9 °F 35.5 °F 26.1 °F 62% 29.95 in 10.0 mi South 3.5 mph - N/A   Clear
5:53 AM 37.9 °F 35.5 °F 26.1 °F 62% 29.96 in 10.0 mi South 3.5 mph - N/A   Clear
6:53 AM 37.0 °F - 26.1 °F 65% 29.98 in 10.0 mi Calm Calm - N/A   Clear
7:53 AM 37.9 °F - 28.0 °F 68% 30.00 in 10.0 mi Calm Calm - N/A   Clear
8:53 AM 42.1 °F 38.4 °F 32.0 °F 67% 30.03 in 10.0 mi NNW 5.8 mph - N/A   Clear
9:53 AM 46.9 °F - 33.1 °F 59% 30.04 in 10.0 mi Calm Calm - N/A   Clear
10:53 AM 50.0 °F - 28.0 °F 43% 30.03 in 10.0 mi NNW 5.8 mph - N/A   Clear
11:53 AM 54.0 °F - 28.0 °F 37% 30.01 in 10.0 mi NNW 5.8 mph - N/A   Clear
12:53 PM 55.9 °F - 30.0 °F 37% 29.99 in 10.0 mi NNE 4.6 mph - N/A   Clear
1:53 PM 57.0 °F - 28.9 °F 34% 29.97 in 10.0 mi Calm Calm - N/A   Clear
2:53 PM 59.0 °F - 30.9 °F 35% 29.95 in 8.0 mi Calm Calm - N/A   Clear
3:53 PM 60.1 °F - 33.1 °F 36% 29.95 in 10.0 mi SSE 3.5 mph - N/A   Clear
4:53 PM 57.0 °F - 34.0 °F 42% 29.95 in 10.0 mi South 3.5 mph - N/A   Clear
5:53 PM 51.1 °F - 35.1 °F 54% 29.97 in 10.0 mi Calm Calm - N/A   Clear
6:53 PM 48.9 °F - 35.1 °F 59% 29.99 in 10.0 mi Calm Calm - N/A   Clear
7:53 PM 45.0 °F - 36.0 °F 71% 30.01 in 10.0 mi Calm Calm - N/A   Clear
8:53 PM 45.0 °F - 37.0 °F 74% 30.03 in 6.0 mi Calm Calm - N/A   Haze
9:53 PM 42.1 °F - 37.0 °F 82% 30.04 in 5.0 mi Calm Calm - N/A   Haze
10:53 PM 39.9 °F - 36.0 °F 86% 30.05 in 6.0 mi Calm Calm - N/A   Clear
11:53 PM 39.0 °F - 36.0 °F 89% 30.06 in 7.0 mi Calm Calm - N/A   Clear